(°C)
21°
22°
22°
23°
23°
23°
23°
(°C)
19°
20°
20°
21°
21°
21°
20°
Z
Z
Z
ZSZ
ZSZ
ZSZ
ZSZ
(km/h)
21-32
20-31
21-30
21-30
23-31
23-32
24-36
(mm)
0
0
0
0
0
0
0
(%)
0
0
0
0
0
0
0

Výška Slnka nad obzorom

/ 37.1°
sun-icon
UV 4
05:07
20:51
Ubúdajúci kosáčik (335°)
01:53
20:18

Správy METAR pre lokalitu 55.31°S 61.5°V (USCC)

Čas Podmienky Teplota/
Rosný bod
Vietor Viditeľnosť Počasie Oblaky Tlak Zmeniť Nespracované
VFR 21°C / 16°C 330º 14kt >10km - Scattered Clouds 2600ft 1008 No Significant change USCC 060430Z 33007MPS 9999 SCT026CB 21/16 Q1008 R27/000060 NOSIG RMK QFE736
VFR 21°C / 16°C 310º 12kt >10km - Scattered Clouds 4000ft 1008 No Significant change USCC 060400Z 31006MPS 9999 SCT040 21/16 Q1008 R27/000060 NOSIG RMK QFE736
VFR 20°C / 16°C 320º 10kt >10km - Scattered Clouds 4000ft 1009 No Significant change USCC 060330Z 32005MPS 9999 SCT040 20/16 Q1009 R27/000060 NOSIG RMK QFE736
VFR 19°C / 16°C 310º 10kt >10km - Scattered Clouds 3000ft 1009 No Significant change USCC 060300Z 31005MPS 9999 SCT030 19/16 Q1009 R27/000060 NOSIG RMK QFE736
VFR 19°C / 17°C 300º 10kt >10km - Scattered Clouds 3000ft 1008 No Significant change USCC 060230Z 30005MPS 9999 SCT030 19/17 Q1008 R27/000060 NOSIG RMK QFE736
VFR 18°C / 16°C 290º 12kt >10km - Scattered Clouds 4000ft 1008 No Significant change USCC 060200Z 29006MPS 9999 SCT040 18/16 Q1008 R27/000060 NOSIG RMK QFE736
VFR 18°C / 16°C 280º 8kt >10km - Few Clouds 4000ft 1008 No Significant change USCC 060130Z 28004MPS 9999 FEW040 18/16 Q1008 R27/000060 NOSIG RMK QFE736
VFR 17°C / 15°C 300º 8kt >10km - Few Clouds 4000ft 1008 No Significant change USCC 060100Z 30004MPS 9999 FEW040CB 17/15 Q1008 R27/000060 NOSIG RMK QFE736
VFR 17°C / 15°C 290º 8kt >10km - Few Clouds 4000ft 1007 No Significant change USCC 060030Z 29004MPS 9999 FEW040CB 17/15 Q1007 R27/000060 NOSIG RMK QFE736
VFR 17°C / 15°C 290º 6kt >10km - Few Clouds 4000ft 1007 No Significant change USCC 060000Z 29003MPS 9999 FEW040CB 17/15 Q1007 R27/000060 NOSIG RMK QFE735
VFR 17°C / 15°C 290º 8kt >10km - Few Clouds 4000ft 1007 No Significant change USCC 052330Z 29004MPS 9999 FEW040CB 17/15 Q1007 R27/000060 NOSIG RMK QFE735
VFR 17°C / 15°C 290º 6kt >10km - Few Clouds 4000ft 1007 No Significant change USCC 052300Z 29003MPS 9999 FEW040CB 17/15 Q1007 R27/000060 NOSIG RMK QFE735
VFR 18°C / 15°C 290º 8kt >10km - Few Clouds 4000ft 1007 No Significant change USCC 052230Z 29004MPS 9999 FEW040CB 18/15 Q1007 R27/000060 NOSIG RMK QFE735
VFR 17°C / 15°C 280º 10kt >10km - Few Clouds 4000ft 1007 No Significant change USCC 052200Z 28005MPS 9999 FEW040CB 17/15 Q1007 R27/000060 NOSIG RMK QFE735
VFR 17°C / 15°C 280º 10kt >10km - Few Clouds 4000ft 1007 No Significant change USCC 052130Z 28005MPS 9999 FEW040CB 17/15 Q1007 R27/000060 NOSIG RMK QFE735
VFR 17°C / 14°C 300º 6kt >10km - Few Clouds 4000ft 1007 No Significant change USCC 052100Z 30003MPS 9999 FEW040CB 17/14 Q1007 R27/000060 NOSIG RMK QFE735
VFR 18°C / 15°C 310º 2kt >10km - Scattered Clouds 4000ft 1007 No Significant change USCC 052030Z 31001MPS 9999 SCT040CB 18/15 Q1007 R27/000060 NOSIG RMK QFE735
VFR 19°C / 15°C 280º 6kt >10km - Scattered Clouds 4000ft 1007 No Significant change USCC 052000Z 28003MPS 9999 SCT040CB 19/15 Q1007 R27/000060 NOSIG RMK QFE735
VFR 20°C / 15°C 230º 2kt >10km - Scattered Clouds 4000ft 1007 Temporary: VRB25MPS Visibility 1000. Thunderstorm Rain Hail . Squalls . VV003 RMK QFE736 . Runway 27: Wet or puddles, 51-100% contamination with <1mm, friction coefficient 0.50. USCC 051930Z 23001MPS 9999 SCT040CB 20/15 Q1007 R27/290050 TEMPO VRB25MPS 1000 TSRAGR SQ VV003 RMK QFE736
VFR 21°C / 15°C 310º 6kt >10km - Scattered Clouds 4000ft 1008 Temporary: VRB25MPS Visibility 1000. Thunderstorm Rain Hail . Squalls . VV003 RMK QFE736 . Runway 27: Wet or puddles, 51-100% contamination with <1mm, friction coefficient 0.50. USCC 051900Z 31003MPS 9999 SCT040CB 21/15 Q1008 R27/290050 TEMPO VRB25MPS 1000 TSRAGR SQ VV003 RMK QFE736
VFR 22°C / 15°C 230º variable 110º to 280º 6kt >10km Thunderstorm Vertical Visibility of 0ft. 1007 Temporary: VRB25MPS Visibility 1000. Thunderstorm Rain Hail . Squalls . VV003 RMK QFE735 . Runway 27: Wet or puddles, 51-100% contamination with <1mm, friction coefficient 0.50. USCC 051830Z 23003MPS 110V280 9999 TS SCT040CB 22/15 Q1007 R27/290050 TEMPO VRB25MPS 1000 TSRAGR SQ VV003 RMK QFE735
VFR 22°C / 15°C 300º 8kt >10km Light Thunderstorm Rain 3.00mm precipitation Vertical Visibility of 0ft. 1007 Temporary: VRB25MPS Visibility 1000. Thunderstorm Rain Hail . Squalls . VV003 RMK QFE735 . Runway 27: Wet or puddles, 51-100% contamination with <1mm, friction coefficient 0.50. USCC 051800Z 30004MPS 9999 -TSRA SCT040CB 22/15 Q1007 R27/290050 TEMPO VRB25MPS 1000 TSRAGR SQ VV003 RMK QFE735
VFR 24°C / 15°C 240º 16kt >10km Light Thunderstorm Rain 3.00mm precipitation Vertical Visibility of 0ft. 1008 Temporary: VRB25MPS Visibility 1000. Thunderstorm Rain Hail . Squalls . VV003 RMK QFE736 USCC 051745Z 24008MPS 9999 -TSRA SCT040CB 24/15 Q1008 R27/000060 TEMPO VRB25MPS 1000 TSRAGR SQ VV003 RMK QFE736
VFR 24°C / 15°C 240º 16kt >10km Light Showers Rain 3.00mm precipitation Vertical Visibility of 0ft. 1008 Temporary: VRB25MPS Visibility 1000. Thunderstorm Rain Hail . Squalls . VV003 RMK QFE736 USCC 051730Z 24008MPS 9999 -SHRA SCT040CB 24/15 Q1008 R27/000060 TEMPO VRB25MPS 1000 TSRAGR SQ VV003 RMK QFE736

VFR

21°C / 16°C

[Viac]
Vietor 330º 14kt
Viditeľnosť >10km
Počasie -
Oblaky Scattered Clouds 2600ft
Tlak 1008
Zmeniť No Significant change
Nespracované USCC 060430Z 33007MPS 9999 SCT026CB 21/16 Q1008 R27/000060 NOSIG RMK QFE736

VFR

21°C / 16°C

[Viac]
Vietor 310º 12kt
Viditeľnosť >10km
Počasie -
Oblaky Scattered Clouds 4000ft
Tlak 1008
Zmeniť No Significant change
Nespracované USCC 060400Z 31006MPS 9999 SCT040 21/16 Q1008 R27/000060 NOSIG RMK QFE736

VFR

20°C / 16°C

[Viac]
Vietor 320º 10kt
Viditeľnosť >10km
Počasie -
Oblaky Scattered Clouds 4000ft
Tlak 1009
Zmeniť No Significant change
Nespracované USCC 060330Z 32005MPS 9999 SCT040 20/16 Q1009 R27/000060 NOSIG RMK QFE736

VFR

19°C / 16°C

[Viac]
Vietor 310º 10kt
Viditeľnosť >10km
Počasie -
Oblaky Scattered Clouds 3000ft
Tlak 1009
Zmeniť No Significant change
Nespracované USCC 060300Z 31005MPS 9999 SCT030 19/16 Q1009 R27/000060 NOSIG RMK QFE736

VFR

19°C / 17°C

[Viac]
Vietor 300º 10kt
Viditeľnosť >10km
Počasie -
Oblaky Scattered Clouds 3000ft
Tlak 1008
Zmeniť No Significant change
Nespracované USCC 060230Z 30005MPS 9999 SCT030 19/17 Q1008 R27/000060 NOSIG RMK QFE736

VFR

18°C / 16°C

[Viac]
Vietor 290º 12kt
Viditeľnosť >10km
Počasie -
Oblaky Scattered Clouds 4000ft
Tlak 1008
Zmeniť No Significant change
Nespracované USCC 060200Z 29006MPS 9999 SCT040 18/16 Q1008 R27/000060 NOSIG RMK QFE736

VFR

18°C / 16°C

[Viac]
Vietor 280º 8kt
Viditeľnosť >10km
Počasie -
Oblaky Few Clouds 4000ft
Tlak 1008
Zmeniť No Significant change
Nespracované USCC 060130Z 28004MPS 9999 FEW040 18/16 Q1008 R27/000060 NOSIG RMK QFE736

VFR

17°C / 15°C

[Viac]
Vietor 300º 8kt
Viditeľnosť >10km
Počasie -
Oblaky Few Clouds 4000ft
Tlak 1008
Zmeniť No Significant change
Nespracované USCC 060100Z 30004MPS 9999 FEW040CB 17/15 Q1008 R27/000060 NOSIG RMK QFE736

VFR

17°C / 15°C

[Viac]
Vietor 290º 8kt
Viditeľnosť >10km
Počasie -
Oblaky Few Clouds 4000ft
Tlak 1007
Zmeniť No Significant change
Nespracované USCC 060030Z 29004MPS 9999 FEW040CB 17/15 Q1007 R27/000060 NOSIG RMK QFE736

VFR

17°C / 15°C

[Viac]
Vietor 290º 6kt
Viditeľnosť >10km
Počasie -
Oblaky Few Clouds 4000ft
Tlak 1007
Zmeniť No Significant change
Nespracované USCC 060000Z 29003MPS 9999 FEW040CB 17/15 Q1007 R27/000060 NOSIG RMK QFE735

VFR

17°C / 15°C

[Viac]
Vietor 290º 8kt
Viditeľnosť >10km
Počasie -
Oblaky Few Clouds 4000ft
Tlak 1007
Zmeniť No Significant change
Nespracované USCC 052330Z 29004MPS 9999 FEW040CB 17/15 Q1007 R27/000060 NOSIG RMK QFE735

VFR

17°C / 15°C

[Viac]
Vietor 290º 6kt
Viditeľnosť >10km
Počasie -
Oblaky Few Clouds 4000ft
Tlak 1007
Zmeniť No Significant change
Nespracované USCC 052300Z 29003MPS 9999 FEW040CB 17/15 Q1007 R27/000060 NOSIG RMK QFE735

VFR

18°C / 15°C

[Viac]
Vietor 290º 8kt
Viditeľnosť >10km
Počasie -
Oblaky Few Clouds 4000ft
Tlak 1007
Zmeniť No Significant change
Nespracované USCC 052230Z 29004MPS 9999 FEW040CB 18/15 Q1007 R27/000060 NOSIG RMK QFE735

VFR

17°C / 15°C

[Viac]
Vietor 280º 10kt
Viditeľnosť >10km
Počasie -
Oblaky Few Clouds 4000ft
Tlak 1007
Zmeniť No Significant change
Nespracované USCC 052200Z 28005MPS 9999 FEW040CB 17/15 Q1007 R27/000060 NOSIG RMK QFE735

VFR

17°C / 15°C

[Viac]
Vietor 280º 10kt
Viditeľnosť >10km
Počasie -
Oblaky Few Clouds 4000ft
Tlak 1007
Zmeniť No Significant change
Nespracované USCC 052130Z 28005MPS 9999 FEW040CB 17/15 Q1007 R27/000060 NOSIG RMK QFE735

VFR

17°C / 14°C

[Viac]
Vietor 300º 6kt
Viditeľnosť >10km
Počasie -
Oblaky Few Clouds 4000ft
Tlak 1007
Zmeniť No Significant change
Nespracované USCC 052100Z 30003MPS 9999 FEW040CB 17/14 Q1007 R27/000060 NOSIG RMK QFE735

VFR

18°C / 15°C

[Viac]
Vietor 310º 2kt
Viditeľnosť >10km
Počasie -
Oblaky Scattered Clouds 4000ft
Tlak 1007
Zmeniť No Significant change
Nespracované USCC 052030Z 31001MPS 9999 SCT040CB 18/15 Q1007 R27/000060 NOSIG RMK QFE735

VFR

19°C / 15°C

[Viac]
Vietor 280º 6kt
Viditeľnosť >10km
Počasie -
Oblaky Scattered Clouds 4000ft
Tlak 1007
Zmeniť No Significant change
Nespracované USCC 052000Z 28003MPS 9999 SCT040CB 19/15 Q1007 R27/000060 NOSIG RMK QFE735

VFR

20°C / 15°C

[Viac]
Vietor 230º 2kt
Viditeľnosť >10km
Počasie -
Oblaky Scattered Clouds 4000ft
Tlak 1007
Zmeniť Temporary: VRB25MPS Visibility 1000. Thunderstorm Rain Hail . Squalls . VV003 RMK QFE736 . Runway 27: Wet or puddles, 51-100% contamination with <1mm, friction coefficient 0.50.
Nespracované USCC 051930Z 23001MPS 9999 SCT040CB 20/15 Q1007 R27/290050 TEMPO VRB25MPS 1000 TSRAGR SQ VV003 RMK QFE736

VFR

21°C / 15°C

[Viac]
Vietor 310º 6kt
Viditeľnosť >10km
Počasie -
Oblaky Scattered Clouds 4000ft
Tlak 1008
Zmeniť Temporary: VRB25MPS Visibility 1000. Thunderstorm Rain Hail . Squalls . VV003 RMK QFE736 . Runway 27: Wet or puddles, 51-100% contamination with <1mm, friction coefficient 0.50.
Nespracované USCC 051900Z 31003MPS 9999 SCT040CB 21/15 Q1008 R27/290050 TEMPO VRB25MPS 1000 TSRAGR SQ VV003 RMK QFE736

VFR

22°C / 15°C

[Viac]
Vietor 230º variable 110º to 280º 6kt
Viditeľnosť >10km
Počasie Thunderstorm
Oblaky Vertical Visibility of 0ft.
Tlak 1007
Zmeniť Temporary: VRB25MPS Visibility 1000. Thunderstorm Rain Hail . Squalls . VV003 RMK QFE735 . Runway 27: Wet or puddles, 51-100% contamination with <1mm, friction coefficient 0.50.
Nespracované USCC 051830Z 23003MPS 110V280 9999 TS SCT040CB 22/15 Q1007 R27/290050 TEMPO VRB25MPS 1000 TSRAGR SQ VV003 RMK QFE735

VFR

22°C / 15°C

[Viac]
Vietor 300º 8kt
Viditeľnosť >10km
Počasie Light Thunderstorm Rain 3.00mm precipitation
Oblaky Vertical Visibility of 0ft.
Tlak 1007
Zmeniť Temporary: VRB25MPS Visibility 1000. Thunderstorm Rain Hail . Squalls . VV003 RMK QFE735 . Runway 27: Wet or puddles, 51-100% contamination with <1mm, friction coefficient 0.50.
Nespracované USCC 051800Z 30004MPS 9999 -TSRA SCT040CB 22/15 Q1007 R27/290050 TEMPO VRB25MPS 1000 TSRAGR SQ VV003 RMK QFE735

VFR

24°C / 15°C

[Viac]
Vietor 240º 16kt
Viditeľnosť >10km
Počasie Light Thunderstorm Rain 3.00mm precipitation
Oblaky Vertical Visibility of 0ft.
Tlak 1008
Zmeniť Temporary: VRB25MPS Visibility 1000. Thunderstorm Rain Hail . Squalls . VV003 RMK QFE736
Nespracované USCC 051745Z 24008MPS 9999 -TSRA SCT040CB 24/15 Q1008 R27/000060 TEMPO VRB25MPS 1000 TSRAGR SQ VV003 RMK QFE736

VFR

24°C / 15°C

[Viac]
Vietor 240º 16kt
Viditeľnosť >10km
Počasie Light Showers Rain 3.00mm precipitation
Oblaky Vertical Visibility of 0ft.
Tlak 1008
Zmeniť Temporary: VRB25MPS Visibility 1000. Thunderstorm Rain Hail . Squalls . VV003 RMK QFE736
Nespracované USCC 051730Z 24008MPS 9999 -SHRA SCT040CB 24/15 Q1008 R27/000060 TEMPO VRB25MPS 1000 TSRAGR SQ VV003 RMK QFE736

Správy TAF pre lokalitu 55.31°S 61.5°V (USCC)

From till


From till Wind 310º 6kt. Gust 16kt. Visibility 10km or more. Broken Clouds 3000ft.
Temporarly from till Wind 280º 10kt. Gust 29kt. Visibility 6000m. Light Thunderstorm Rain . Broken Clouds 1600ft.

Nespracované: TAF USCC 060200Z 0603/0703 31003G08MPS 9999 BKN030CB TEMPO 0606/0618 28005G15MPS 6000 -TSRA BKN016CB

Aktuálne satelitné snímky a snímky zrážok pre lokalitu 55.31°S 61.5°V

Značka polohy je umiestnená na55.31°S 61.5°V. [Viac]

Satelitné snímky zhotovované v reálnom čase využívajú viditeľné svetlo počas dňa a infračervené žiarenie počas noci. Vzhľadom na to, že infračervené žiarenie zisťuje teplotné rozdiely, snímka v noci nie je tmavá. Nízke oblaky a hmlu je, žiaľ, ťažké odlíšiť od prízemných teplôt, preto môžu byť počas noci takmer neviditeľné. Meteosat satelitné snímky pre Európu sú aktualizované v reálnom čase každých 5 minút. Snímky z GOES-16/GOES-17 (Severná a Južná Amerika) a Himawari (Ázia) sú aktualizované každých 10 minút.

Copyright 2021 EUMETSAT / meteoblue. / Copyright 2021 meteoblue

Radar a krátkodobá predpoveď zrážok pre 55.31°S 61.5°V

Mrholenie
Slabý
Mierne
Ťažké
Veľmi ťažké
Krúpy

Značka polohy je umiestnená na 55.31°S 61.5°V. Táto animácia ukazuje zrážky pozorované radarom za poslednú hodinu a tiež 1h predpoveď. Mrholenie alebo slabé sneženie môže byť pre radar neviditeľné. Intenzita zrážok je farebne označená od svetlomodrej po oranžovú.